Overview Statistics Trail Chart Weather Telemetry Raw packets
 

This is the latest recevied weather packets stored in our database for station/object KD2FKI. If no packets are shown the sender has not sent any weather packets the latest 10 day(s).

<< 19 20 21 22 23 24 25 >>
Time Temp. Humidity Pressure Rain* Wind** Luminosity Snow
1788111919 31.11° C 63% - 0 mm - - -
1788111335 29.44° C 69% - 0 mm - - -
1788110732 28.89° C 75% - 0 mm - - -
1788110130 27.22° C 81% - 0 mm - - -
1788109528 25.56° C 82% - 0 mm - - -
1788108926 26.11° C 80% - 0 mm - - -
1788108326 27.22° C 77% - 0 mm - - -
1788107724 27.78° C 72% - 0 mm - - -
1788107119 28.89° C 68% - 0 mm - - -
1788106538 30° C 65% - 0 mm - - -
1788105932 29.44° C 67% - 0 mm - - -
1788105330 28.89° C 70% - 0 mm - - -
1788104730 27.22° C 75% - 0 mm - - -
1788104126 26.67° C 75% - 0 mm - - -
1788103524 26.67° C 75% - 0 mm - - -
1788102921 26.67° C 75% - 0 mm - - -
1788102319 26.11° C 77% - 0 mm - - -
1788101737 26.11° C 78% - 0 mm - - -
1788101133 26.11° C 78% - 0 mm - - -
1788100530 25.56° C 79% - 0 mm - - -
1788099928 25° C 81% - 0 mm - - -
1788099327 25° C 82% - 0 mm - - -
1788098724 25° C 82% - 0 mm - - -
1788098122 25° C 82% - 0 mm - - -
1788097519 25° C 83% - 0 mm - - -

* Rain latest hour (hover to see other rain measurements)
** Current wind speed in m/s (hover to see current wind gust speed)